TimeCST,TemperatureF,Dew PointF,Humidity,Sea Level PressureIn,VisibilityMPH,Wind Direction,Wind SpeedMPH,Gust SpeedMPH,PrecipitationIn,Events,Conditions,WindDirDegrees,DateUTC
12:54 AM,33.8,26.6,75,30.38,10.0,Calm,Calm,-,N/A,,Clear,0,2013-01-05 06:54:00
1:54 AM,32.0,27.0,82,30.39,10.0,Calm,Calm,-,N/A,,Clear,0,2013-01-05 07:54:00
2:39 AM,30.2,26.6,86,30.37,10.0,Calm,Calm,-,N/A,,Mostly Cloudy,0,2013-01-05 08:39:00
2:54 AM,30.2,24.8,80,30.38,10.0,Calm,Calm,-,N/A,,Scattered Clouds,0,2013-01-05 08:54:00
3:54 AM,32.0,26.1,79,30.37,10.0,Calm,Calm,-,N/A,,Scattered Clouds,0,2013-01-05 09:54:00
4:54 AM,34.0,27.0,75,30.36,10.0,East,3.5,-,N/A,,Scattered Clouds,90,2013-01-05 10:54:00
5:54 AM,34.0,28.0,79,30.38,10.0,Calm,Calm,-,N/A,,Mostly Cloudy,0,2013-01-05 11:54:00
6:54 AM,33.8,28.4,81,30.41,10.0,Calm,Calm,-,N/A,,Mostly Cloudy,0,2013-01-05 12:54:00
7:54 AM,35.1,28.9,78,30.42,10.0,Calm,Calm,-,N/A,,Mostly Cloudy,0,2013-01-05 13:54:00
8:54 AM,37.9,28.9,70,30.41,10.0,South,5.8,-,0.00,,Mostly Cloudy,170,2013-01-05 14:54:00
9:54 AM,43.0,28.9,58,30.40,10.0,South,6.9,-,0.00,,Mostly Cloudy,190,2013-01-05 15:54:00
10:54 AM,43.0,28.9,58,30.38,8.0,SSW,5.8,-,0.00,Rain,Light Rain,210,2013-01-05 16:54:00
11:54 AM,45.0,30.0,56,30.35,10.0,SSW,6.9,-,0.00,,Overcast,200,2013-01-05 17:54:00
12:54 PM,45.0,30.9,58,30.31,10.0,SW,8.1,-,N/A,,Overcast,230,2013-01-05 18:54:00
1:54 PM,46.0,30.9,56,30.29,10.0,SSW,4.6,-,N/A,,Overcast,210,2013-01-05 19:54:00
2:18 PM,46.4,30.2,53,30.28,10.0,SW,5.8,-,N/A,,Overcast,220,2013-01-05 20:18:00
2:54 PM,46.0,32.0,58,30.29,10.0,SW,6.9,-,N/A,,Overcast,220,2013-01-05 20:54:00
3:54 PM,45.0,32.0,60,30.29,10.0,SSW,9.2,-,N/A,,Overcast,210,2013-01-05 21:54:00
4:54 PM,44.6,30.2,57,30.28,10.0,SSW,6.9,-,N/A,,Overcast,210,2013-01-05 22:54:00
5:15 PM,44.6,30.2,57,30.28,10.0,SSW,6.9,-,N/A,,Overcast,200,2013-01-05 23:15:00
5:35 PM,44.6,32.0,61,30.28,10.0,SSW,5.8,-,N/A,,Overcast,210,2013-01-05 23:35:00
5:54 PM,44.1,32.0,63,30.29,10.0,SSW,10.4,-,N/A,,Overcast,200,2013-01-05 23:54:00
6:54 PM,43.0,33.1,68,30.29,10.0,South,9.2,-,N/A,,Overcast,190,2013-01-06 00:54:00
7:54 PM,41.0,34.0,76,30.29,10.0,SSW,8.1,-,N/A,,Mostly Cloudy,200,2013-01-06 01:54:00
8:54 PM,41.0,35.1,79,30.29,10.0,Calm,Calm,-,N/A,,Overcast,0,2013-01-06 02:54:00
9:54 PM,41.0,36.0,82,30.29,10.0,South,5.8,-,N/A,,Overcast,190,2013-01-06 03:54:00
10:54 PM,42.1,37.0,82,30.30,10.0,SW,6.9,-,N/A,,Overcast,220,2013-01-06 04:54:00
11:49 PM,39.2,35.6,87,30.27,10.0,SSW,6.9,-,N/A,,Partly Cloudy,200,2013-01-06 05:49:00
11:54 PM,39.0,36.0,89,30.27,10.0,SSW,5.8,-,N/A,,Partly Cloudy,210,2013-01-06 05:54:00